Waarnemingen

Advertentie
Mijn weer
Gourette, Frankrijk (7775): temperatuur & dauwpunt: 19.05.2019 21:00:00 - 25.05.2019 21:00:00 (CEST)Gourette, Frankrijk (7775): windsnelheid & windstoten: 19.05.2019 21:00:00 - 25.05.2019 21:00:00 (CEST)Gourette, Frankrijk (7775): windrichting: 19.05.2019 21:00:00 - 25.05.2019 21:00:00 (CEST)Gourette, Frankrijk (7775): luchtdruk: 19.05.2019 21:00:00 - 25.05.2019 21:00:00 (CEST)Gourette, Frankrijk (7775): zicht: 19.05.2019 21:00:00 - 25.05.2019 21:00:00 (CEST)Gourette, Frankrijk (7775): neerslag: 19.05.2019 21:00:00 - 25.05.2019 21:00:00 (CEST)
Datum & Tijd tt [°C] td [°C] ff [km/u] ff [kn] fx [km/u] fx [kn] dd ppp [hPa] vv [km] rr [mm]
25.05.2019 21:00:00 17,1 14,4 18 10 27 15 Z 1013,8 - 0,0
25.05.2019 20:00:00 17,9 14,2 20 11 30 16 Z 1013,6 18 0,0
25.05.2019 19:00:00 18,5 15,0 18 10 29 16 ZZO 1013,2 - 0,0
25.05.2019 18:00:00 19,5 15,2 16 9 29 16 ZZO 1013,1 - 0,0
25.05.2019 17:00:00 20,5 15,5 16 9 29 16 ZO 1013,1 15 0,0
25.05.2019 16:00:00 20,2 15,6 15 8 28 15 ZO 1013,7 - 0,0
25.05.2019 15:00:00 19,8 15,4 15 8 27 14 ZO 1014,2 - 0,0
25.05.2019 14:00:00 19,9 14,7 13 7 24 13 OZO 1014,5 - 0,0
25.05.2019 13:00:00 20,2 14,3 13 7 28 15 ZO 1014,9 - 0,0
25.05.2019 12:00:00 20,6 14,9 10 5 24 13 OZO 1014,9 - 0,0
25.05.2019 11:00:00 20,0 14,8 10 5 22 12 ZO 1014,9 - 0,0
25.05.2019 10:00:00 19,0 14,9 13 7 21 12 ZO 1014,9 - 0,0
25.05.2019 09:00:00 17,6 15,2 9 5 17 9 Z 1014,8 - 0,0
25.05.2019 08:00:00 16,5 14,5 0 0 6 3 N 1014,2 10 0,0
25.05.2019 07:00:00 16,0 14,4 2 1 4 2 NNW 1014,3 - 0,0
25.05.2019 06:00:00 15,6 14,0 4 2 11 6 NNW 1014,1 - 0,0
25.05.2019 05:00:00 15,4 13,8 8 5 16 9 N 1013,8 - 0,0
25.05.2019 04:00:00 14,7 12,4 9 5 14 7 N 1013,7 - 0,0
25.05.2019 03:00:00 14,7 11,8 11 6 19 10 NNW 1013,8 - 0,0
25.05.2019 02:00:00 16,2 12,0 6 4 8 5 N 1013,8 - 0,0
25.05.2019 01:00:00 15,7 13,0 6 3 10 5 W 1014,1 - 0,0
25.05.2019 00:00:00 15,3 13,8 9 5 10 5 ZW 1014,5 - 0,0
24.05.2019 23:00:00 15,9 14,3 4 2 9 5 Z 1014,4 - 0,0
24.05.2019 22:00:00 15,9 14,3 7 4 9 5 Z 1014,4 - 0,0
24.05.2019 21:00:00 17,0 14,5 5 3 7 4 Z 1013,9 - 0,0
24.05.2019 20:00:00 18,0 14,7 4 2 14 8 OZO 1013,6 25 0,0
24.05.2019 19:00:00 18,7 14,8 7 4 14 8 ZO 1013,4 - 0,0
24.05.2019 18:00:00 19,9 14,7 6 4 16 9 OZO 1013,5 - 0,0
24.05.2019 17:00:00 20,1 14,9 9 5 19 10 O 1013,9 - 0,0
24.05.2019 16:00:00 20,3 14,6 10 6 24 13 O 1014,4 - 0,0
24.05.2019 15:00:00 20,0 15,0 13 7 25 13 O 1014,7 - 0,0
24.05.2019 14:00:00 20,3 15,3 15 8 26 14 O 1014,9 - 0,0
24.05.2019 13:00:00 20,5 15,5 15 8 23 13 ONO 1015,2 - 0,0
24.05.2019 12:00:00 20,0 14,6 15 8 28 15 ONO 1015,5 - 0,0
24.05.2019 11:00:00 19,6 13,8 16 9 27 14 ONO 1015,6 18 0,0
24.05.2019 10:00:00 21,0 14,6 14 7 21 12 NNO 1015,7 - 0,0
24.05.2019 09:00:00 20,2 15,0 11 6 17 9 NO 1015,7 - 0,0
24.05.2019 08:00:00 17,1 14,6 5 3 14 7 N 1015,5 18 0,0
24.05.2019 07:00:00 15,1 12,2 10 5 14 8 NNW 1015,5 - 0,0
24.05.2019 06:00:00 14,6 12,1 11 6 15 8 NNW 1015,4 - 0,0
24.05.2019 05:00:00 14,3 12,3 13 7 16 8 NNW 1015,3 - 0,0
24.05.2019 04:00:00 14,7 12,2 10 6 14 8 NNW 1015,6 - 0,0
24.05.2019 03:00:00 14,6 12,5 12 7 16 9 NNW 1015,6 - 0,0
24.05.2019 02:00:00 14,9 12,8 14 8 17 9 N 1016,0 - 0,0
24.05.2019 01:00:00 16,1 13,4 3 1 9 5 WZW 1016,2 - 0,0
24.05.2019 00:00:00 15,7 13,5 7 4 8 4 ZW 1016,1 - 0,0
23.05.2019 23:00:00 16,1 13,6 5 3 6 3 ZZW 1016,5 - 0,0
23.05.2019 22:00:00 16,4 13,7 4 2 7 4 Z 1016,6 - 0,0
23.05.2019 21:00:00 16,8 13,7 5 3 13 7 ZZO 1016,3 - 0,0
23.05.2019 20:00:00 17,8 14,1 6 4 14 8 ZZO 1016,0 - 0,0
23.05.2019 19:00:00 18,8 14,1 9 5 16 8 ZZO 1015,7 - 0,0
23.05.2019 18:00:00 19,9 14,3 9 5 21 11 ZO 1015,9 - 0,0
23.05.2019 17:00:00 19,8 14,2 11 6 24 13 ZO 1016,1 15 0,0
23.05.2019 16:00:00 20,5 14,6 10 6 22 12 OZO 1016,3 - 0,0
23.05.2019 15:00:00 20,9 14,8 14 8 25 13 ONO 1017,0 - 0,0
23.05.2019 14:00:00 20,3 14,0 12 7 23 13 O 1017,4 15 0,0
23.05.2019 13:00:00 19,4 14,0 14 8 24 13 O 1017,8 - 0,0
23.05.2019 12:00:00 20,7 15,3 14 7 23 12 ONO 1017,9 - 0,0
23.05.2019 11:00:00 19,8 15,0 12 7 22 12 ONO 1018,0 15 0,0
23.05.2019 10:00:00 20,7 14,6 14 8 - - NO 1017,8 - 0,0
23.05.2019 09:00:00 19,1 14,4 16 8 23 12 N 1017,6 - 0,0
23.05.2019 08:00:00 16,6 13,5 11 6 23 13 N 1017,4 - 0,0
23.05.2019 07:00:00 14,9 12,8 16 9 25 13 N 1017,0 - 0,0
23.05.2019 06:00:00 14,2 12,4 17 9 26 14 N 1016,8 - 0,2
23.05.2019 05:00:00 14,7 12,7 18 10 27 15 N 1016,4 - 0,0
23.05.2019 04:00:00 14,5 12,7 19 11 25 14 NNW 1016,5 - 0,0
23.05.2019 03:00:00 14,8 13,2 16 8 26 14 NNW 1016,7 - 0,0
23.05.2019 02:00:00 14,8 13,5 19 10 28 15 NNW 1016,9 - 0,0
23.05.2019 01:00:00 15,0 13,7 18 10 25 14 N 1016,8 - 0,0
23.05.2019 00:00:00 15,2 13,9 18 10 23 12 NNW 1016,6 - 0,0
22.05.2019 23:00:00 15,2 14,1 14 8 22 12 NNW 1016,4 - 0,0
22.05.2019 22:00:00 15,5 14,5 17 9 30 16 N 1016,0 - 0,0
22.05.2019 21:00:00 15,9 14,6 16 9 30 16 N 1015,4 - 0,0
22.05.2019 20:00:00 17,2 14,8 17 9 24 13 N 1015,0 - 0,0
22.05.2019 19:00:00 18,0 14,9 14 8 19 10 NNO 1015,0 - 0,0
22.05.2019 18:00:00 17,9 15,0 15 8 23 13 NNO 1015,1 - 0,0
22.05.2019 17:00:00 19,6 14,6 16 8 26 14 NO 1015,0 - 0,0
22.05.2019 16:00:00 19,4 14,6 16 9 26 14 NO 1015,1 - 0,0
22.05.2019 15:00:00 19,0 15,1 12 6 21 11 ONO 1015,5 - 0,0
22.05.2019 14:00:00 18,1 14,4 17 9 26 14 NO 1016,0 - 0,0
22.05.2019 13:00:00 18,4 15,1 15 8 29 16 NO 1016,0 - 0,0
22.05.2019 12:00:00 20,7 15,5 21 11 29 15 NNO 1015,7 - 0,0
22.05.2019 11:00:00 19,1 13,7 15 8 22 12 ONO 1015,3 - 0,0
22.05.2019 10:00:00 19,3 14,8 10 5 16 9 ONO 1015,1 - 0,0
22.05.2019 09:00:00 19,0 14,0 8 4 13 7 O 1015,1 - 0,0
22.05.2019 08:00:00 16,8 13,7 5 3 9 5 NNO 1015,0 18 0,0
22.05.2019 07:00:00 14,9 12,2 5 3 8 4 WZW 1014,9 - 0,0
22.05.2019 06:00:00 14,7 11,7 5 3 10 5 N 1014,7 - 0,0
22.05.2019 05:00:00 15,2 12,1 4 2 8 4 ZZO 1014,6 - 0,0
22.05.2019 04:00:00 15,6 12,5 2 1 10 5 WZW 1014,7 - 0,0
22.05.2019 03:00:00 15,2 12,3 0 0 14 8 N 1014,9 - 0,0
22.05.2019 02:00:00 15,7 11,3 12 7 20 11 NW 1014,9 - 0,0
22.05.2019 01:00:00 14,2 11,4 17 9 21 12 NNW 1015,1 - 0,0
22.05.2019 00:00:00 14,8 12,3 17 9 24 13 NNW 1015,3 - 0,0
21.05.2019 23:00:00 14,9 13,6 16 9 26 14 N 1015,3 - 0,0
21.05.2019 22:00:00 15,2 14,2 17 9 26 14 N 1014,7 - 0,0
21.05.2019 21:00:00 15,9 14,4 20 11 27 15 N 1014,1 - 0,0
21.05.2019 20:00:00 17,5 14,6 17 9 28 15 N 1013,3 - 0,0
21.05.2019 19:00:00 19,0 14,9 19 10 28 15 N 1013,1 - 0,0
21.05.2019 18:00:00 20,6 14,9 19 11 32 17 N 1012,9 - 0,0
21.05.2019 17:00:00 22,1 14,5 25 13 35 19 NNO 1012,7 10 0,0
21.05.2019 16:00:00 23,2 14,5 21 12 32 17 NNO 1012,5 - 0,0
21.05.2019 15:00:00 - - - - - - - - - -
21.05.2019 14:00:00 - - - - - - - - - -
21.05.2019 13:00:00 - - - - - - - - - -
21.05.2019 12:00:00 - - - - - - - - - -
21.05.2019 11:00:00 - - - - - - - - - -
21.05.2019 10:00:00 - - - - - - - - - -
21.05.2019 09:00:00 - - - - - - - - - -
21.05.2019 08:00:00 16,2 13,7 10 6 20 11 N 1010,0 - 0,0
21.05.2019 07:00:00 14,1 11,4 12 6 16 9 N 1009,7 - 0,0
21.05.2019 06:00:00 13,7 10,5 9 5 16 9 N 1009,4 - 0,0
21.05.2019 05:00:00 14,1 11,1 4 2 9 5 NNW 1009,3 15 0,0
21.05.2019 04:00:00 13,9 10,3 3 1 8 4 N 1009,7 - 0,0
21.05.2019 03:00:00 14,2 10,4 3 1 20 11 N 1009,8 - 0,0
21.05.2019 02:00:00 13,2 10,7 17 9 20 11 ZZW 1010,0 - 0,0
21.05.2019 01:00:00 13,4 10,6 16 9 19 11 ZW 1010,4 - 0,0
21.05.2019 00:00:00 12,8 10,3 16 9 19 11 ZW 1010,4 - 0,0
20.05.2019 23:00:00 14,2 10,6 10 6 13 7 W 1010,4 - 0,0
20.05.2019 22:00:00 14,4 10,4 11 6 22 12 N 1010,0 - 0,0
20.05.2019 21:00:00 15,0 10,2 16 9 32 17 N 1009,2 - 0,0
20.05.2019 20:00:00 16,1 11,0 23 13 34 19 N 1008,8 - 0,0
20.05.2019 19:00:00 17,1 11,4 18 10 29 15 NNO 1008,2 - 0,0
20.05.2019 18:00:00 18,4 10,2 19 10 33 18 N 1007,7 - 0,0
20.05.2019 17:00:00 17,8 11,8 17 9 28 15 N 1007,7 20 0,0
20.05.2019 16:00:00 20,7 12,9 16 9 24 13 NNO 1007,3 - 0,0
20.05.2019 15:00:00 20,1 11,6 9 5 23 12 O 1007,3 - 0,0
20.05.2019 14:00:00 19,7 11,5 9 5 24 13 O 1007,3 - 0,0
20.05.2019 13:00:00 18,3 11,4 13 7 24 13 O 1007,2 - 0,0
20.05.2019 12:00:00 18,5 9,8 15 8 26 14 ZZO 1007,0 - 0,0
20.05.2019 11:00:00 17,3 9,7 19 10 25 14 ZO 1006,9 20 0,0
20.05.2019 10:00:00 18,9 10,7 12 7 21 12 ZO 1006,7 - 0,0
20.05.2019 09:00:00 17,2 10,8 6 4 13 7 ZZW 1006,8 - 0,0
20.05.2019 08:00:00 14,3 10,3 4 2 11 6 W 1006,8 18 0,0
20.05.2019 07:00:00 14,2 7,5 10 5 18 10 NW 1006,4 - 0,0
20.05.2019 06:00:00 13,5 6,8 12 7 17 9 NNW 1006,2 - 0,0
20.05.2019 05:00:00 13,4 8,0 13 7 23 12 NW 1006,3 18 0,0
20.05.2019 04:00:00 11,7 7,6 16 8 21 12 NW 1006,5 - 0,0
20.05.2019 03:00:00 12,0 7,5 13 7 19 11 NNW 1006,4 - 0,0
20.05.2019 02:00:00 12,6 6,8 11 6 19 10 NNW 1006,6 - 0,0
20.05.2019 01:00:00 12,2 7,9 11 6 15 8 NNW 1007,0 - 0,0
20.05.2019 00:00:00 12,6 7,5 3 1 16 9 ONO 1007,2 - 0,0
19.05.2019 23:00:00 13,0 9,3 10 6 15 8 ZW 1007,2 - 0,0
19.05.2019 22:00:00 13,4 8,9 8 4 9 5 WZW 1007,1 - 0,0
19.05.2019 21:00:00 13,9 10,7 3 1 8 5 ZW 1006,8 - 0,0

tt = temperatuur
td = dauwpunt
ff = windsnelheid
fx = windstoten
dd = windrichting
ppp = luchtdruk
vv = zicht
rr = neerslag

Weerstations in de omgeving